Skip Page Navigation
NASA JPL Caltech
NASA Logo - Jet Propulsion Laboratory + View the NASA Portal
+ Center for Near-Earth Object Studies
JPL Home Earth Solar System Stars & Galaxies Technology
JPL Solar System Dynamics
BODIES ORBITS EPHEMERIDES TOOLS PHYSICAL DATA DISCOVERY FAQ SITE MAP
JPL Small-Body Database Browser
Search: [ help ]  
357665 (2005 JV109)
Classification: Main-belt Asteroid          SPK-ID: 2357665
Ephemeris | Orbit Diagram | Orbital Elements | Mission Design | Physical Parameters | Discovery Circumstances | Close-Approach Data ]

[ hide orbit diagram ]

For accurate long-term ephemerides, please instead use our Horizons system.This orbit viewer was implemented using two-body methods, and hence should not be used for determining accurate long-term trajectories (over several years or decades) or planetary encounter circumstances.


Orbital Elements at Epoch 2459396.5 (2021-Jul-01.0) TDB
Reference: JPL 10 (heliocentric ecliptic J2000)
 Element Value Uncertainty (1-sigma)   Units 
e .2699540277750928 5.2136e-08  
a 2.585768152096033 2.8008e-08 au
q 1.88772962454515 1.2549e-07 au
i 5.497876056492972 1.2434e-05 deg
node 159.720513702668 5.7482e-05 deg
peri 105.7510231955109 6.442e-05 deg
M 295.5193628636912 3.3484e-05 deg
tp 2459668.525501343052
(2022-Mar-30.02550134)
0.00014463 TDB
period 1518.737792191499
4.16
2.4676e-05
6.756e-08
d
yr
n .2370389423710391 3.8513e-09 deg/d
Q 3.283806679646916 3.5569e-08 au
  Orbit Determination Parameters
   # obs. used (total)      138  
   data-arc span      5767 days (15.79 yr)  
   first obs. used      2005-04-30  
   last obs. used      2021-02-12  
   planetary ephem.      DE441  
   SB-pert. ephem.      SB441-N16  
   condition code      0  
   norm. resid. RMS      .63994  
   source      ORB  
   producer      Otto Matic  
   solution date      2021-Apr-14 09:21:30  

Additional Information
 Earth MOID = .881069 au 
 Jupiter MOID = 1.84553 au 
 T_jup = 3.364 
[ show covariance matrix ]

Ephemeris | Orbit Diagram | Orbital Elements | Mission Design | Physical Parameters | Discovery Circumstances | Close-Approach Data ]

Physical Parameter Table
Parameter Symbol Value Units Sigma Reference Notes
absolute magnitude H 17.39   n/a MPCxxxxx  

357665 (2005 JV109)          Discovered 2005-May-07 by CSS at Catalina
Reference: 20130327/Numbers.arcLast Updated: 2013-03-29

[ show close-approach data ]
Alternate Designations
 2005 JV109 = 2009 DL130 
Ephemeris | Orbit Diagram | Orbital Elements | Mission Design | Physical Parameters | Discovery Circumstances | Close-Approach Data ]
ABOUT SSD CREDITS/AWARDS PRIVACY/COPYRIGHT GLOSSARY LINKS
FirstGov 2021-Jul-29 10:33 UT
(server date/time)  
NASA Home Page
Site Manager:   Ryan S. Park
Webmaster  Alan B. Chamberlin